Tracking 30115 objects as of 16-Jan-2025
HD Live streaming from Space Station
objects crossing your sky now

OBJECT AW

Track OBJECT AW now!
10-day predictions


NORAD ID: 61779
Int'l Code: 2024-199AW
Perigee: 486.0 km
Apogee: 509.4 km
Inclination: 97.4 °
Period: 94.4 minutes
Semi major axis: 6868 km
RCS: Unknown
Launch date: November 4, 2024
Source: (TBD)
Launch site: VOSTOCHNY COSMODROME (VOSTO)
Your satellite tracking list
Your tracking list is empty




NASA's NSSDC Master Catalog

Two Line Element Set (TLE):
1 61779U 24199AW  25016.12830869  .00010484  00000-0  42037-3 0  9992
2 61779  97.3765 245.8233 0017032 354.6300   5.4752 15.25060560 57993
Source of the keplerian elements: AFSPC